INTELSAT 33E DEB, 64409

Orbit data source: Space-Track

INTELSAT 33E DEB, 64409 is space debris in GEO originally from a launch on Wed, 24 Aug 2016 UTC launched from the French Guiana (FRGUI). Debris objects in space refer to the collection of defunct objects orbiting the Earth. Examples of debris include non-operational satellites, rocket bodies, and fragments generated from explosions, collisions, or faulty payload assembly.

Not visible in the next 10 days
Identifier
64409, 2016-053AP
Orbit
GEO
Last TLE update
1 day ago
Origin
Flag of UnknownINTELU (Unknown / ITSO)
Manufacturer
Boeing/ES
Mission
Spacecraft
Bus & Motor
Unknown
Mass
Unknown
Launch date (UTC)
2016-08-24 (9 years ago)
Launch vehicle
Unknown
Launch site
French Guiana (FRGUI)
Object type
Payload
Rocket body
Debris
Shape & HBR
Unknown
Radar Cross Section
RCS unknown

Expand to show TLE details & history

TLE from 1 day ago
0 INTELSAT 33E DEB
1 64409U 16053AP  25181.09962287  .00000113  00000-0  00000-0 0  9993
2 64409   0.6155  77.2675 0055271  72.8749 210.1601  0.99466414  2368
Epoch: 2025-06-30T02:23Z
TLE epoch observation values (Epoch: 2025-06-30T02:23:27.415Z)
Latitude
-0.60887°
Longitude
45.72234°
Altitude
36,215.668 km
Speed
3.052 km/s
True Right ascension
00h 00m 00s
True Declination
0° 36' 30"
Sunlit
Object was in daylight at epoch
Visualization orbit readout
Latitude
0.44867°
Longitude
166.93908°
Altitude
35,807.514 km
Speed
3.081 km/s
Apparent Right ascension
08h 18m 04s
Apparent Declination
-4° 36' 45"
Sunlit
Object is in daylight
Visualization observer readout
Local Sidereal Time
22:17:02
Azimuth
45.048° ENE
Elevation
-45.676°
Doppler factor
1
Orbital elements
Apogee altitude
36,249.267 km
Perigee altitude
35,780.646 km
Semi-major axis
42,393.094 km
Eccentricity
0.00553
Inclination
0.6155°
RAAN
77.2675°
Arg. of periapsis
72.8749°
True anomaly
Unknown
Mean anomaly
210.1601°
Eccentric anomaly
Unknown
Mean motion
0.24866 °/min
Orbital period
1,447.78 mins
BSTAR
0
Loading historical data...
64409 neighbors
Loading maneuver chart data...
Loading SW <> Apogee altitude chart data...
Loading historical data...
Loading historical data...
Loading historical data...
Loading historical data...
Loading historical data...
Loading historical data...
Loading historical data...

INTELSAT 33E DEB Visibility

Observer location: undefined°, undefined°

INTELSAT 33E DEB is likely not visible in the next few days
Span
Click to sort rows by Start time (UTC) header in descending order
Start Az.
Max El. time (UTC)
Max El. Az.
Max El.
End time (UTC)
End Az.
|